Weather History for Fullerton, CA

Change the Weather History Date:

Sunday, December 9, 2012

  Actual Average Record
Temperature  
Mean Temperature 64 °F 56 °F  
Max Temperature 70 °F 67 °F 78 °F (2014)
Min Temperature 58 °F 45 °F 38 °F (1998)
Degree Days  
Heating Degree Days 1 9  
Month to date heating degree days 13 75  
Since 1 July heating degree days 71 239  
Cooling Degree Days 0 0  
Month to date cooling degree days 4 0  
Year to date cooling degree days 2042 1251  
Growing Degree Days 12 (Base 50)    
Moisture  
Dew Point 52 °F    
Average Humidity 66    
Maximum Humidity 78    
Minimum Humidity 53    
Precipitation  
Precipitation 0.00 in 0.04 in 0.28 in (2006)
Month to date precipitation 0.83 0.39  
Year to date precipitation 5.37 12.22  
Since 1 July precipitation 1.84 2.57  
Snow  
Snow 0.00 in - - ()
Month to date snowfall 0.0  
Year to date snowfall 0.0  
Since 1 July snowfall 0.0  
Snow Depth 0.00 in    
Sea Level Pressure  
Sea Level Pressure 30.03 in    
Wind  
Wind Speed 1 mph (SE)    
Max Wind Speed 7 mph    
Max Gust Speed 10 mph    
Visibility 3 miles    
Events      
T = Trace of Precipitation, MM = Missing Value Source: NWS Daily Summary

Daily Weather History Graph

Daily Weather History Graph

Search for Another Location

Airport:

Trip Planner

Search our weather history database for the weather conditions in past years. The results will help you decide how hot, cold, wet, or windy it might be!

Date:

Astronomy

Dec. 09, 2012 Rise Set
Actual Time 6:45 AM PST 4:43 PM PST
Civil Twilight 6:18 AM PST 5:10 PM PST
Nautical Twilight 5:47 AM PST 5:41 PM PST
Astronomical Twilight 5:16 AM PST 6:12 PM PST
Moon 2:32 AM PST (12/9) 1:46 PM PST (12/9)
Length of Visible Light 10h 52m
Length of Day
9h 57m
Waning Crescent, 17% of the Moon is Illuminated
Dec 9
Waning Crescent
Dec 13
New
Dec 19
First Quarter
Dec 28
Full
Jan 4
Last Quarter

Hourly Weather History & Observations

Time (PST) Temp. Dew Point Humidity Pressure Visibility Wind Dir Wind Speed Gust Speed Precip Events Conditions
12:53 AM 61.0 °F 53.1 °F 75% 29.97 in 3.0 mi Calm Calm - N/A   Haze
1:53 AM 60.1 °F 54.0 °F 80% 29.98 in 3.0 mi Calm Calm - N/A   Haze
2:03 AM 60.8 °F 53.6 °F 77% 29.98 in 2.5 mi Calm Calm - N/A   Haze
2:22 AM 60.8 °F 53.6 °F 77% 29.97 in 3.0 mi Variable 3.5 mph - N/A   Haze
2:53 AM 60.1 °F 54.0 °F 80% 29.98 in 3.0 mi Calm Calm - N/A   Haze
3:00 AM 60.8 °F 53.6 °F 77% 29.98 in 2.5 mi Calm Calm - N/A   Haze
3:53 AM 60.1 °F 53.1 °F 78% 29.97 in 3.0 mi Calm Calm - N/A   Haze
4:53 AM 60.1 °F 53.1 °F 78% 29.98 in 3.0 mi Calm Calm - N/A   Haze
5:53 AM 60.1 °F 52.0 °F 75% 30.01 in 3.0 mi Variable 3.5 mph - N/A   Haze
6:53 AM 59.0 °F 52.0 °F 78% 30.02 in 3.0 mi East 4.6 mph - N/A   Haze
7:07 AM 59.0 °F 51.8 °F 77% 30.02 in 2.0 mi East 4.6 mph - N/A   Haze
7:53 AM 59.0 °F 52.0 °F 78% 30.02 in 2.5 mi Calm Calm - N/A   Haze
8:53 AM 59.0 °F 52.0 °F 78% 30.04 in 2.5 mi Calm Calm - N/A   Haze
9:53 AM 61.0 °F 52.0 °F 72% 30.06 in 2.5 mi Calm Calm - N/A   Haze
10:53 AM 63.0 °F 52.0 °F 67% 30.04 in 2.5 mi Calm Calm - N/A   Haze
11:53 AM 66.0 °F 52.0 °F 60% 30.02 in 3.0 mi Calm Calm - N/A   Haze
12:53 PM 68.0 °F 51.1 °F 55% 29.99 in 3.0 mi Calm Calm - N/A   Haze
2:53 PM 69.1 °F 54.0 °F 58% 29.99 in 3.0 mi SSW 5.8 mph - N/A   Haze
3:53 PM 64.9 °F 54.0 °F 68% 30.01 in 4.0 mi SW 4.6 mph - N/A   Haze
4:53 PM 63.0 °F 53.1 °F 70% 30.03 in 3.0 mi Calm Calm - N/A   Haze
5:53 PM 61.0 °F 53.1 °F 75% 30.05 in 4.0 mi Calm Calm - N/A   Haze
6:53 PM 60.1 °F 53.1 °F 78% 30.06 in 4.0 mi Calm Calm - N/A   Haze
7:53 PM 57.9 °F 52.0 °F 81% 30.07 in 3.0 mi Calm Calm - N/A   Haze
8:53 PM 57.0 °F 51.1 °F 81% 30.09 in 3.0 mi Calm Calm - N/A   Haze
9:09 PM 55.4 °F 51.8 °F 88% 30.09 in 2.5 mi Calm Calm - N/A   Haze
9:43 PM 55.4 °F 50.0 °F 82% 30.10 in 3.0 mi Calm Calm - N/A   Haze
9:53 PM 55.9 °F 51.1 °F 84% 30.10 in 3.0 mi Calm Calm - N/A   Haze
10:15 PM 55.4 °F 50.0 °F 82% 30.11 in 2.5 mi Calm Calm - N/A   Haze
10:37 PM 55.4 °F 50.0 °F 82% 30.12 in 3.0 mi Calm Calm - N/A   Haze
10:53 PM 54.0 °F 50.0 °F 86% 30.12 in 2.5 mi East 3.5 mph - N/A   Clear
11:53 PM 54.0 °F 48.9 °F 83% 30.11 in 2.5 mi Calm Calm - N/A   Haze